sat.trackr.live / text

‹ back to catalog

GSAT0203 (GALILEO 7)

NORAD 40544 · 2015-017A

PAYLOAD ACTIVE UNKNOWN

§ Identity

Operator
Country
ESA
Launch date
2015-03-27
Launch site
FRGUI
Launch vehicle
Mass (kg)
RCS (m²)
8.45

Purposes: earth_obs, nav

External: N2YO · Heavens-Above · Gunter

§ Orbital elements

Epoch: 2026-09-17T21:25:43.692384Z

Period
844.69 min
Inclination
56.7489°
Eccentricity
0.0004460
Mean motion
1.70476597 rev/d
Perigee alt
23,208.7 km
Apogee alt
23,235.1 km
Semi-major
29,600.0 km
B*
0.0000e+0
RAAN
339.0688°
Arg perigee
252.0601°
Mean anomaly
107.9439°
Rev number
7,078

§ Raw data

GSAT0203 (GALILEO 7)1 40544U 15017A   26260.89286681 -.00000097  00000+0  00000+0 0  99902 40544  56.7489 339.0688 0004460 252.0601 107.9439  1.70476597 70786

JSON: /api/v1/satellites/40544 · /tle

For live sub-satellite position, see the globe view (requires WebGL).

§ Visibility from observer

Set your observer location to see the next 7 days of passes ≥ 10°. The values pass through the URL so the page stays shareable.

No JS? Fill the form by hand. The geolocation button needs JavaScript.